Tracking 30692 objects as of 16-Jun-2025
HD Live streaming from Space Station
objects crossing your sky now

STARLINK-31176

Track STARLINK-31176 now!
10-day predictions
STARLINK-31176 is classified as:


NORAD ID: 58745
Int'l Code: 2024-005T
Perigee: 565.3 km
Apogee: 567.2 km
Inclination: 43.0 °
Period: 95.8 minutes
Semi major axis: 6937 km
RCS: Unknown
Launch date: January 7, 2024
Source: United States (US)
Launch site: AIR FORCE EASTERN TEST RANGE (AFETR)
Your satellite tracking list
Your tracking list is empty




NASA's NSSDC Master Catalog

Two Line Element Set (TLE):
1 58745U 24005T   25166.65465185 -.00000875  00000-0 -49693-4 0  9997
2 58745  43.0033 232.5390 0001318 274.2562  85.8130 15.02525134 80291
Source of the keplerian elements: AFSPC